Location: Alto Pass Reservoir
(37.5801°N, 89.3084°W)
Time: 07:49:27
(UTC+00:00)

Cosmos 2298 Rocket - Pass Details

Date: 13 July 2022
Orbit: 775 x 784 km, 74.0° (Epoch: 15 August)

Event Time Altitude Azimuth Distance (km) Brightness Sun altitude
Rises 09:06:28 0° 318° (NW) 3,276 7.3 -16.6°
Reaches altitude 10° 09:10:16 10° 291° (WNW) 2,341 6.3 -16.1°
Enters shadow 09:11:56 13° 273° (W) 2,163 5.9 -15.9°
